Meridian NAS, MS

10:31 PM CDT on May 26, 2017 (GMT -0500)
Meridian Naval Air Station

Weather History for KNMM - May, 2014

Change the Weather History Date:

Friday, May 23, 2014

  Actual Average Record
Temperature  
Mean Temperature 76 °F -  
Max Temperature 91 °F 81 °F 91 °F (2005)
Min Temperature 62 °F 61 °F 45 °F (2002)
Cooling Degree Days 11    
Growing Degree Days 26 (Base 50)    
Moisture  
Dew Point 62 °F    
Average Humidity 65    
Maximum Humidity 93    
Minimum Humidity 35    
Precipitation  
Precipitation 0.00 in - - ()
Sea Level Pressure  
Sea Level Pressure 30.13 in    
Wind  
Wind Speed 2 mph (West)    
Max Wind Speed 7 mph    
Max Gust Speed -    
Visibility 9 miles    
Events      
Averages and records for this station are not official NWS values.
T = Trace of Precipitation, MM = Missing Value Source: NWS Daily Summary

Daily Weather History Graph

Daily Weather History Graph

Search for Another Location

Airport or City:

Trip Planner

Search our weather history database for the weather conditions in past years. The results will help you decide how hot, cold, wet, or windy it might be!

Date:

Astronomy

May. 23, 2014 Rise Set
Actual Time 5:51 AM CDT 7:51 PM CDT
Civil Twilight 5:23 AM CDT 8:18 PM CDT
Nautical Twilight 4:50 AM CDT 8:52 PM CDT
Astronomical Twilight 4:14 AM CDT 9:28 PM CDT
Moon 2:27 AM CDT (5/23) 3:00 PM CDT (5/23)
Length of Visible Light 14h 55m
Length of Day
14h 00m
Waning Crescent, 27% of the Moon is Illuminated
May 23
Waning Crescent
May 28
New
Jun 5
First Quarter
Jun 12
Full
Jun 19
Last Quarter

Hourly Weather History & Observations

Time (CDT) Temp. Heat Index Dew Point Humidity Pressure Visibility Wind Dir Wind Speed Gust Speed Precip Events Conditions
12:56 AM 66.0 °F - 64.0 °F 93% 30.13 in 7.0 mi Calm Calm - N/A   Clear
1:56 AM 66.0 °F - 63.0 °F 90% 30.13 in 7.0 mi WNW 4.6 mph - N/A   Clear
2:56 AM 64.0 °F - 62.1 °F 93% 30.14 in 9.0 mi Calm Calm - N/A   Clear
3:56 AM 64.0 °F - 62.1 °F 93% 30.14 in 6.0 mi Calm Calm - N/A   Clear
4:56 AM 63.0 °F - 60.1 °F 90% 30.15 in 9.0 mi Calm Calm - N/A   Clear
5:56 AM 62.1 °F - 60.1 °F 93% 30.15 in 7.0 mi Calm Calm - N/A   Partly Cloudy
6:56 AM 64.0 °F - 61.0 °F 90% 30.17 in 7.0 mi Calm Calm - N/A   Partly Cloudy
7:56 AM 72.0 °F - 64.0 °F 76% 30.17 in 10.0 mi Calm Calm - N/A   Partly Cloudy
8:56 AM 80.1 °F 81.9 °F 64.9 °F 60% 30.17 in 10.0 mi NNW 4.6 mph - N/A   Partly Cloudy
9:56 AM 82.9 °F 84.0 °F 63.0 °F 51% 30.17 in 10.0 mi Variable 5.8 mph - N/A   Partly Cloudy
10:50 AM 84.2 °F 85.0 °F 62.6 °F 48% 30.14 in 10.0 mi Variable 3.5 mph - N/A   Partly Cloudy
10:56 AM 86.0 °F 85.7 °F 60.1 °F 41% 30.17 in 10.0 mi Variable 4.6 mph - N/A   Partly Cloudy
11:56 AM 86.0 °F 85.4 °F 59.0 °F 40% 30.16 in 10.0 mi Variable 3.5 mph - N/A   Partly Cloudy
12:56 PM 88.0 °F 87.6 °F 60.1 °F 39% 30.14 in 10.0 mi NNW 6.9 mph - N/A   Scattered Clouds
1:56 PM 88.0 °F 87.6 °F 60.1 °F 39% 30.12 in 10.0 mi Calm Calm - N/A   Partly Cloudy
2:56 PM 89.1 °F 88.8 °F 60.1 °F 38% 30.11 in 10.0 mi South 6.9 mph - N/A   Clear
3:56 PM 90.0 °F 89.1 °F 59.0 °F 35% 30.09 in 10.0 mi SSW 4.6 mph - N/A   Clear
4:56 PM 89.1 °F 88.8 °F 60.1 °F 38% 30.09 in 10.0 mi SW 5.8 mph - N/A   Partly Cloudy
5:56 PM 89.1 °F 88.8 °F 60.1 °F 38% 30.08 in 10.0 mi WNW 3.5 mph - N/A   Clear
6:56 PM 84.0 °F 84.9 °F 63.0 °F 49% 30.07 in 10.0 mi Calm Calm - N/A   Clear
7:56 PM 77.0 °F - 64.0 °F 64% 30.08 in 10.0 mi Calm Calm - N/A   Clear
8:56 PM 73.9 °F - 64.0 °F 71% 30.08 in 10.0 mi Calm Calm - N/A   Clear
9:56 PM 72.0 °F - 64.0 °F 76% 30.09 in 10.0 mi Calm Calm - N/A   Clear
10:56 PM 70.0 °F - 64.9 °F 84% 30.10 in 10.0 mi Calm Calm - N/A   Clear
11:56 PM 69.1 °F - 64.9 °F 87% 30.10 in 9.0 mi Calm Calm - N/A   Clear